Starlink 32001

operational
NORAD ID: 60110 Int'l Des: 2024-117 Owner: SPXS Country: US Constellation: starlink
LEOCIRCULAR

About Starlink 32001

Description loading...

Live Position

Loading 3D Globe...

Upcoming Passes

Altitude History

Altitude vs Time

uPlot chart will show altitude changes over time

Two-Line Element Set

1 60110U 24117V 26102.80648086 .00000518 00000-0 29622-4 0 9993
2 60110 53.1600 238.3852 0001005 87.7526 272.3590 15.30192588102112
Epoch: Apr 12, 2026 • Age: 10 hours

Current Status

Altitude 476.4 km
Velocity 7.63 km/s
Sub-Earth Point -1.88°S, 133.08°E
Launch Date Jun 23, 2024
Age 1.8 years
Type internet

Technical Details

Classification Payload
Mass 730.00 kg
Dry Mass 700.00 kg
Total Mass 730.00 kg
Length 0.30 m
Diameter 4.10 m
Span 29.00 m
Shape Box + pan
Manufacturer SPXS
Bus Type Starlink V2M
Phase Status In Orbit
Owner/State SPXS/US

Large Constellations

Loading constellations...